Location: Taueru River
(41.0667°S, 175.6333°E)
Time: 00:53:20
(UTC+00:00)

Daily predictions for brighter satellites

Satellite Brightness Start Highest point End
(mag) Time Altitude Azimuth Time Altitude Azimuth Time Altitude Azimuth
COSMOS 2428 2.8 08:04:00 10° SSW 08:09:48 77° ESE 08:15:31 10° NNE
Meteor 1-27 Rocket 4.5 08:05:48 10° SSW 08:11:21 57° W 08:16:57 10° N
Cosmos 1842 Rocket 3.7 08:09:21 10° S 08:13:54 89° W 08:18:22 10° N
NOSS 0 Rocket 4.0 08:20:12 10° SSW 08:26:28 78° ESE 08:32:37 10° NNE
Cosmos 783 Rocket 4.5 08:21:42 10° NNW 08:26:57 80° ENE 08:32:15 10° SSE
SPOT 5 3.8 08:23:18 10° SSE 08:28:10 35° E 08:32:59 10° NNE
Meteor 1-18 Rocket 4.4 08:23:17 10° S 08:29:17 81° E 08:35:06 10° NNE
CSL-04 Rocket 4.2 08:26:31 10° SSE 08:31:33 38° E 08:36:35 10° NNE
Cosmos 1174 4.4 08:29:07 10° SSW 08:33:32 79° WNW 08:38:59 10° NNE
USA 186 3.7 08:35:47 10° ESE 08:36:42 11° E 08:37:01 11° E
USA 267 4.3 08:31:08 10° SE 08:37:29 51° SSW 08:43:48 10° WNW
Cosmos 1805 4.3 08:35:34 10° NNW 08:38:47 40° WSW 08:42:04 10° S
USA 290 3.9 08:36:16 10° NW 08:39:21 38° WSW 08:42:28 10° S
SJ-6B 3.3 08:35:56 10° S 08:39:25 55° WSW 08:42:52 10° NNW
Meteor 1-31 Rocket 2.5 08:35:57 10° SSE 08:39:30 85° E 08:43:01 10° NNW
ATLAS 3B R/B 2.6 08:33:27 10° SSW 08:39:47 85° SE 08:45:55 13° NE
Cosmos 1975 4.1 08:41:08 14° NE 08:43:09 21° E 08:46:03 10° SE
SL-16 R/B 3.9 08:46:15 10° S 08:50:37 22° SE 08:54:56 10° ENE
Cosmos 1709 Rocket 4.1 08:45:10 10° N 08:51:15 61° E 08:57:30 10° SSE
BREEZE-M DEB (TANK) 3.5 08:48:19 10° WSW 08:52:01 35° S 08:54:29 10° ESE
Cosmos 1766 3.1 08:49:55 13° N 08:52:48 51° E 08:56:08 10° SSE
Cosmos 2297 Rocket 2.7 08:49:05 10° NW 08:54:43 65° WSW 09:00:24 10° SSE
Cosmos 1745 Rocket 4.0 08:49:11 10° N 08:55:20 88° E 09:01:38 10° S
ATLAS CENTAUR R/B 1.4 08:54:14 19° NNE 08:55:34 28° ENE 08:58:08 10° SE
Cosmos 1151 Rocket 3.0 08:53:24 10° S 08:57:51 89° W 09:01:47 13° N
ARIANE 6 FM1 Upper Stage 3.7 08:56:32 10° NW 09:00:50 54° SW 09:05:17 10° SSE
Cosmos 1980 3.7 08:56:15 10° SSW 09:01:59 90° ESE 09:06:29 17° NNE
Meteor 2-9 Rocket 4.3 08:57:16 10° N 09:02:33 58° E 09:08:03 10° SSE
CSL-04 Debris 4.1 08:57:37 10° SSE 09:03:04 69° ENE 09:08:26 10° N
Cosmos 1536 3.3 09:00:02 10° NNW 09:03:41 55° W 09:07:23 10° S
Cosmos 1300 3.3 09:04:49 22° E 09:04:59 22° E 09:07:14 10° SE
SL-4 R/B 2.8 09:02:15 10° WSW 09:06:05 39° NW 09:08:27 20° NNE
CZ-4B R/B 3.5 09:04:18 10° SSE 09:09:26 44° E 09:13:16 17° NNE
Cosmos 2219 4.2 09:07:24 19° NE 09:10:11 28° ENE 09:14:58 10° SE
Nadezhda 1 Rocket 4.3 09:05:09 10° SSW 09:11:36 71° W 09:17:58 10° N
USA 234 3.3 09:07:17 18° NE 09:12:25 84° NW 09:19:03 10° SW
Meteor 1-14 Rocket 4.2 09:07:38 10° N 09:13:12 87° W 09:18:51 10° S
Cosmos 1867 4.4 09:10:24 19° NNE 09:13:15 29° ENE 09:17:54 10° SE
Cosmos 1908 3.5 09:11:52 10° NNW 09:14:46 47° W 09:17:41 10° S
Cosmos 2237 Rocket 2.3 09:09:02 10° SSW 09:14:48 78° WNW 09:18:59 19° NNE
OAO 3 Rocket 3.6 09:10:46 10° WNW 09:15:09 39° N 09:17:19 24° NE
Helios 1A 3.2 09:12:06 16° N 09:15:16 62° WNW 09:19:17 10° SSW
CZ-4B DEB 4.1 09:10:27 10° SSE 09:15:59 78° ENE 09:21:26 10° N
Okean O Rocket 2.6 09:13:40 10° SE 09:17:34 29° E 09:18:58 24° NE
Okean-O 3.7 09:14:57 10° SE 09:18:40 26° E 09:19:46 23° ENE
SL-14 R/B 3.3 09:16:26 10° SSW 09:20:15 70° W 09:22:40 21° N
ISS -2.8 09:21:12 10° WNW 09:24:32 52° SSW 09:27:53 10° SE
CZ-4B R/B 4.0 09:21:27 10° SE 09:24:43 25° E 09:25:08 24° ENE
Meteor 1-11 Rocket 3.7 09:20:50 15° N 09:25:29 69° E 09:31:05 10° SSE
Resurs 01 Rocket 4.4 09:23:21 10° SSW 09:26:35 20° WSW 09:29:47 10° WNW
OAO 2 Rocket 3.9 09:22:18 10° WNW 09:27:04 40° N 09:29:10 27° NE
Cosmos 1470 2.5 09:26:57 34° NNE 09:28:13 60° E 09:31:42 10° SSE
Feng Yun 1-1 Rocket 4.3 09:22:55 10° SSE 09:28:57 83° ENE 09:34:39 11° NNW
ADEOS 3.5 09:25:53 10° SSE 09:31:11 82° ENE 09:35:38 15° NNW
Cosmos 724 4.2 09:25:55 10° NNW 09:31:40 85° ENE 09:37:31 10° SSE
Cosmos 1271 Rocket 3.2 09:28:48 10° SSW 09:32:09 47° W 09:33:56 23° NNW
Cosmos 2263 Rocket 2.2 09:30:13 11° N 09:35:35 67° ENE 09:41:15 10° SSE
Terra 1.8 09:30:58 10° SSE 09:35:42 61° E 09:38:10 27° N
Meteor 1-13 Rocket 4.3 09:30:00 10° S 09:35:54 71° E 09:39:06 27° NNE
Okean 3 Rocket 4.5 09:39:23 29° ENE 09:40:18 32° E 09:44:22 10° SSE
CZ-4 R/B 3.1 09:38:51 10° S 09:42:15 30° WSW 09:45:39 10° NW
USA 281 4.0 09:36:44 10° SE 09:42:26 30° ENE 09:44:13 26° NE
Cosmos 2227 Rocket 2.8 09:40:09 10° NW 09:45:44 58° WSW 09:51:24 10° SSE
Ariane Rocket 4.5 09:44:06 10° SE 09:47:50 20° E 09:48:08 20° E
MOS 1-B 4.4 09:42:56 10° SSE 09:48:42 58° E 09:51:35 29° NNE
ERS-1 Rocket 2.9 09:44:32 10° SSE 09:49:38 88° W 09:52:56 22° NNW
Cosmos 1680 Rocket 3.8 09:47:56 33° NNE 09:49:58 50° ENE 09:55:08 10° SSE
USA 245 4.5 09:47:44 10° SE 09:49:40 21° ESE 09:49:40 21° ESE
Cosmos 2074 Rocket 4.1 09:49:02 29° NNE 09:52:15 59° E 09:58:26 10° SSE
CZ-4C R/B 3.1 09:44:53 10° NNW 09:53:51 67° ENE 10:01:28 10° SE
Cosmos 2181 Rocket 4.0 09:47:27 10° S 09:54:00 78° E 09:57:22 30° NNE
USA 32 4.3 09:55:13 36° NE 09:57:03 54° E 10:02:14 10° SSE
GP-B 4.1 09:55:46 10° SSE 09:59:42 30° E 10:00:05 29° E
BREEZE-M TANK 4.1 09:56:58 10° WSW 10:01:09 62° S 10:13:57 10° E
Cosmos 2084 Rocket 3.7 10:02:03 45° ENE 10:02:03 45° ENE 10:05:51 10° SE
IRS-1A Rocket 4.1 09:57:28 10° SSE 10:03:07 79° ENE 10:05:57 30° N
Cosmos 1515 Rocket 3.8 09:59:39 10° S 10:04:01 54° E 10:04:51 46° ENE
SPOT 3 Rocket 4.2 10:00:42 10° SSE 10:05:30 35° E 10:06:14 34° ENE
Cosmos 1607 4.4 10:00:12 10° NW 10:06:34 65° SW 10:12:59 10° SSE
USA 186 3.6 10:04:23 10° SSW 10:06:41 23° WSW 10:07:47 18° WNW
CZ-2C R/B 2.7 10:03:38 10° S 10:06:43 54° WSW 10:07:09 49° WNW
Spot 2 Rocket 3.4 10:03:25 10° SSE 10:08:35 71° ENE 10:10:25 40° N
Meteor 2-13 Rocket 4.4 10:03:25 10° S 10:09:35 77° E 10:12:06 38° NNE
GRACE-FO 1 4.3 10:09:47 76° NNW 10:10:02 85° W 10:13:37 10° S
GRACE-FO 2 4.3 10:10:12 75° NNW 10:10:27 84° W 10:14:02 10° S
Cosmos 1295 Rocket 4.4 10:08:05 29° N 10:11:33 90° E 10:17:48 10° S
BREEZE-M DEB (TANK) 2.5 10:06:38 10° WSW 10:12:12 47° NW 10:12:15 47° NW
Meteor 1-21 4.2 10:07:04 10° S 10:12:56 80° E 10:15:09 40° NNE
Helios 1B rocket 4.0 10:10:20 10° SE 10:12:10 20° ESE 10:12:10 20° ESE
Meteor 2-10 Rocket 4.3 10:17:20 36° ENE 10:18:20 39° E 10:23:37 10° SSE
Cosmos 1818 4.3 10:14:40 10° SW 10:19:46 43° WNW 10:21:28 33° NNW
CZ-4B R/B 3.5 10:17:27 10° SSE 10:22:49 87° ENE 10:24:46 41° NNW
Dummy Sat-01 4.5 10:23:27 83° NW 10:23:32 85° W 10:27:17 10° S
Okean 2 3.8 10:21:46 10° S 10:25:27 44° ESE 10:25:27 44° ESE
Cosmos 2184 Rocket 4.0 10:24:55 31° NNW 10:28:05 77° W 10:34:23 10° S
ATLAS CENTAUR R/B 3.7 10:28:41 10° W 10:30:26 15° SW 10:32:12 10° S
Cosmos 2082 3.7 10:27:51 28° NNW 10:30:59 81° WSW 10:36:45 10° SSE
Geosat 4.5 10:28:28 10° SE 10:33:05 41° ENE 10:33:05 41° ENE
Cosmos 1805 Rocket 3.5 10:34:55 67° ENE 10:35:07 68° E 10:39:33 10° SSE
SL-16 R/B 2.4 10:29:30 10° SSW 10:35:09 62° WNW 10:36:47 44° NNW
Cosmos 2227 4.4 10:35:39 46° NE 10:36:11 47° ENE 10:41:38 10° SE
IRS-1C Rocket 4.0 10:34:29 10° SSE 10:39:48 69° ENE 10:40:47 56° NNE
BREEZE-M DEB (TANK) 4.2 10:23:26 10° WSW 10:40:15 79° SSE 10:42:07 38° E
CZ-2C R/B 4.1 10:45:49 47° NW 10:46:24 50° W 10:50:47 10° SSW
Sich 1 3.5 10:48:02 47° WNW 10:48:40 52° W 10:52:49 10° S
Cosmos 2112 Rocket 4.5 10:46:29 31° NW 10:48:56 60° WSW 10:54:17 10° SSE
Cosmos 2341 Rocket 4.4 10:47:38 42° NE 10:49:00 48° E 10:55:05 10° SSE
Landsat 5 3.9 10:51:19 51° ESE 10:51:23 51° ESE 10:55:35 10° S
Okean O Rocket 3.5 10:49:57 10° SSW 10:53:38 26° WSW 10:56:13 15° WNW
Cosmos 2219 4.3 10:49:12 13° NW 10:54:03 43° WSW 10:59:32 10° SSE
Okean-O 4.3 10:51:05 10° S 10:54:54 29° WSW 10:57:08 19° WNW
Cosmos 2056 Rocket 3.6 10:49:42 10° SSW 10:55:08 74° WNW 10:56:04 59° NNW
Cosmos 1500 Rocket 3.6 10:54:56 67° WNW 10:55:19 72° W 10:59:50 10° S
Cosmos 1943 3.2 10:53:06 10° SSW 10:58:50 76° ESE 10:59:58 57° NE
ISS -0.6 10:59:36 10° SW 11:01:55 17° SSW 11:04:15 10° SSE
ATLAS 5 CENTAUR R/B 3.1 11:04:39 10° SSW 11:10:01 36° SE 11:11:46 28° E
Meteor 2-19 Rocket 4.5 11:03:59 10° S 11:10:09 70° E 11:11:24 55° NE
Terra 4.4 11:09:56 10° SSW 11:12:41 15° WSW 11:15:27 10° W
Cosmos 1844 Rocket 2.6 11:12:41 64° N 11:13:38 84° ENE 11:19:20 10° SSE
PSLV R/B 3.9 11:16:09 57° W 11:16:09 57° W 11:20:04 10° SSW
Cosmos 1862 Rocket 4.2 11:12:56 10° S 11:16:50 46° ESE 11:16:50 46° ESE
Cosmos 1371 Rocket 4.5 11:12:57 10° SSW 11:18:00 47° WNW 11:18:30 45° WNW
Cosmos 1331 Rocket 4.0 11:17:01 10° SSW 11:22:22 69° ESE 11:22:56 63° ENE
Ariane Rocket 3.7 11:22:00 10° S 11:26:56 48° WSW 11:28:13 39° WNW
USA 281 3.8 11:20:42 10° SSE 11:27:06 52° WSW 11:31:05 23° NW
Cosmos 1048 Rocket 4.3 11:26:22 50° WNW 11:27:29 63° WSW 11:32:47 10° SSE
Cosmos 1603 3.8 11:25:34 10° SSW 11:31:20 67° ESE 11:32:20 57° ENE
Cosmos 2218 Rocket 4.0 11:31:06 58° N 11:32:30 88° E 11:39:01 10° S
Cosmos 2228 Rocket 3.5 11:31:30 10° S 11:35:33 56° ESE 11:35:33 56° ESE
Cosmos 1953 4.0 11:39:20 24° SE 11:39:20 24° SE 11:41:25 10° SSE
Cosmos 381 Rocket 4.5 11:37:23 53° NW 11:38:59 78° WSW 11:45:19 10° SSE
Cosmos 1707 Rocket 3.7 11:35:29 10° S 11:39:31 72° S 11:39:31 72° S
CZ-4C R/B 4.3 11:34:50 10° WNW 11:42:43 37° SW 11:49:21 10° SSE
Helios 1B rocket 4.1 11:43:37 10° SSW 11:46:30 22° WSW 11:46:30 22° WSW
Cosmos 1959 Rocket 4.5 11:48:38 57° NW 11:49:50 73° W 11:56:04 10° S
Meteor 1-22 Rocket 4.1 11:51:59 73° N 11:52:35 88° E 11:58:12 10° S
Cosmos 1666 Rocket 4.0 11:53:37 57° WSW 11:53:37 57° WSW 11:57:49 10° S
